USA 153

Last updated on Tue Sep 22 2026 00:03:10 GMT+0000 (Coordinated Universal Time)

1 26575U 00065A 26264.60287623 -.00000322 00000+0 00000+0 0 9996 2 26575 11.7892 34.5951 0001608 141.6475 175.6433 1.00267872 33890
UTC large
Height (km)
Speed (km/s)
/
Latitude / Longitude
Inclination (degrees)
Orbital Period (minutes)
Azimuth
Elevation
Range (km)
Doppler Factor

Next 0 passes for location: London (51.5072 / 0.1276)

No passes found over London.
USA 153